Everett, WA

1:43 AM PST on November 22, 2019 (GMT -0800)
Snohomish County

Weather History for KPAE - August, 2019

Change the Weather History Date:

Wednesday, August 7, 2019

  Actual Average Record
Temperature  
Mean Temperature 65 °F -  
Max Temperature 75 °F 74 °F 87 °F (1964)
Min Temperature 55 °F 54 °F 47 °F (1956)
Growing Degree Days 15 (Base 50)    
Moisture  
Dew Point 56 °F    
Average Humidity 90    
Maximum Humidity 100    
Minimum Humidity 55    
Precipitation  
Precipitation 0.00 in - - ()
Sea Level Pressure  
Sea Level Pressure 29.97 in    
Wind  
Wind Speed 3 mph (WSW)    
Max Wind Speed 9 mph    
Max Gust Speed -    
Visibility 5 miles    
Events Fog    
Averages and records for this station are not official NWS values.
T = Trace of Precipitation, MM = Missing Value Source: NWS Daily Summary

Daily Weather History Graph

Daily Weather History Graph

Search for Another Location

Airport or City:

Astronomy

Aug. 07, 2019 Rise Set
Actual Time 5:53 AM PDT 8:35 PM PDT
Civil Twilight 5:17 AM PDT 9:10 PM PDT
Nautical Twilight 4:32 AM PDT 9:55 PM PDT
Astronomical Twilight 3:39 AM PDT 10:48 PM PDT
Moon 2:05 PM PDT (8/7) No Moon Set
Length of Visible Light 15h 52m
Length of Day
14h 42m
Waxing Crescent, 51% of the Moon is Illuminated
Aug 7
Waxing Crescent
Aug 15
Full
Aug 23
Last Quarter
Aug 30
New
Sep 5
First Quarter

Hourly Weather History & Observations

Time (PDT) Temp. Dew Point Humidity Pressure Visibility Wind Dir Wind Speed Gust Speed Precip Events Conditions
12:53 AM 57.9 °F 55.9 °F 93% 29.96 in 10.0 mi Calm Calm - N/A   Clear
1:53 AM 57.9 °F 55.9 °F 93% 29.96 in 10.0 mi Calm Calm - N/A   Clear
2:37 AM 55.9 °F 55.0 °F 97% 29.96 in 2.5 mi Calm Calm - N/A   Scattered Clouds
2:47 AM 55.4 °F 55.4 °F 100% 29.96 in 1.8 mi NNE 4.6 mph - N/A   Mostly Cloudy
2:53 AM 55.9 °F 55.0 °F 97% 29.96 in 0.5 mi North 4.6 mph - N/A Fog Fog
3:01 AM 55.9 °F 55.0 °F 97% 29.97 in 0.2 mi Calm Calm - N/A Fog Fog
3:18 AM 55.9 °F 55.9 °F 100% 29.97 in 0.2 mi Calm Calm - N/A Fog Fog
3:33 AM 55.9 °F 55.0 °F 97% 29.97 in 1.2 mi Calm Calm - N/A   Mostly Cloudy
3:36 AM 55.9 °F 55.0 °F 97% 29.97 in 4.0 mi Calm Calm - N/A   Mostly Cloudy
3:43 AM 55.9 °F 55.0 °F 97% 29.97 in 10.0 mi Calm Calm - N/A   Scattered Clouds
3:53 AM 55.0 °F 55.0 °F 100% 29.97 in 8.0 mi Calm Calm - N/A   Clear
4:53 AM 55.0 °F 55.0 °F 100% 29.97 in 10.0 mi Calm Calm - N/A   Clear
5:44 AM 55.9 °F 55.0 °F 97% 29.98 in 9.0 mi SSW 5.8 mph - N/A   Scattered Clouds
5:51 AM 55.4 °F 55.4 °F 100% 29.98 in 3.0 mi SSW 4.6 mph - N/A   Mostly Cloudy
5:53 AM 55.9 °F 55.9 °F 100% 29.98 in 1.8 mi SSW 4.6 mph - N/A   Mostly Cloudy
6:02 AM 55.9 °F 55.9 °F 100% 29.98 in 0.5 mi South 3.5 mph - N/A Fog Fog
6:10 AM 55.9 °F 55.9 °F 100% 29.98 in 0.2 mi SSW 3.5 mph - N/A Fog Fog
6:53 AM 55.9 °F 55.9 °F 100% 29.99 in 0.2 mi Calm Calm - N/A Fog Fog
7:53 AM 55.9 °F 55.9 °F 100% 29.99 in 0.2 mi Calm Calm - N/A Fog Fog
8:35 AM 57.0 °F 55.9 °F 96% 30.00 in 0.2 mi Calm Calm - N/A Fog Fog
8:43 AM 57.0 °F 57.0 °F 100% 30.00 in 0.2 mi WSW 4.6 mph - N/A Fog Fog
8:45 AM 57.0 °F 55.9 °F 96% 30.00 in 0.5 mi Variable 3.5 mph - N/A Fog Fog
8:53 AM 57.0 °F 57.0 °F 100% 30.00 in 0.5 mi Calm Calm - N/A Fog Fog
9:15 AM 57.0 °F 57.0 °F 100% 30.00 in 1.8 mi Calm Calm - N/A   Overcast
9:23 AM 57.9 °F 57.9 °F 100% 29.99 in 3.0 mi Calm Calm - N/A   Overcast
9:46 AM 57.9 °F 57.0 °F 97% 30.00 in 1.5 mi West 3.5 mph - N/A   Overcast
9:53 AM 57.9 °F 57.0 °F 97% 29.99 in 0.5 mi WSW 4.6 mph - N/A Fog Fog
10:03 AM 59.0 °F 57.9 °F 96% 29.99 in 1.2 mi WSW 3.5 mph - N/A   Overcast
10:10 AM 59.0 °F 57.9 °F 96% 29.99 in 0.5 mi WSW 3.5 mph - N/A Fog Fog
10:53 AM 59.0 °F 57.0 °F 93% 29.99 in 1.0 mi SW 6.9 mph - N/A   Overcast
10:58 AM 60.1 °F 57.0 °F 90% 29.99 in 3.0 mi SW 6.9 mph - N/A   Overcast
11:53 AM 64.9 °F 57.0 °F 75% 29.99 in 8.0 mi WSW 9.2 mph - N/A   Scattered Clouds
12:53 PM 64.9 °F 57.0 °F 75% 29.98 in 10.0 mi WSW 9.2 mph - N/A   Partly Cloudy
1:53 PM 68.0 °F 57.0 °F 68% 29.97 in 10.0 mi WSW 8.1 mph - N/A   Clear
2:53 PM 71.1 °F 57.9 °F 63% 29.95 in 10.0 mi West 8.1 mph - N/A   Clear
3:53 PM 73.0 °F 57.9 °F 59% 29.94 in 10.0 mi West 8.1 mph - N/A   Clear
4:53 PM 75.0 °F 57.9 °F 55% 29.93 in 10.0 mi West 8.1 mph - N/A   Clear
5:53 PM 72.0 °F 57.0 °F 59% 29.92 in 10.0 mi North 6.9 mph - N/A   Clear
6:53 PM 66.0 °F 55.9 °F 70% 29.92 in 10.0 mi North 8.1 mph - N/A   Clear
7:53 PM 63.0 °F 55.9 °F 78% 29.92 in 10.0 mi North 8.1 mph - N/A   Clear
8:53 PM 61.0 °F 55.0 °F 81% 29.94 in 10.0 mi North 8.1 mph - N/A   Clear
9:53 PM 60.1 °F 55.9 °F 86% 29.96 in 10.0 mi NNE 5.8 mph - N/A   Clear
10:53 PM 60.1 °F 55.9 °F 86% 29.97 in 10.0 mi ENE 3.5 mph - N/A   Clear
11:53 PM 62.1 °F 55.9 °F 80% 29.98 in 10.0 mi ESE 4.6 mph - N/A   Clear